[[{"header":{"parameterUnit":"m.s-1","parameterCategory":1,"la1":30.2991,"la2":30.254,"lo1":-89.0895,"lo2":-89.0444,"dy":0.0017,"dx":0.0017,"nx":28,"ny":28,"refTime":"2025-02-05T03:00:00:Z","depth":0,"parameterNumber":2,"parameterNumberName":"U-component_of_WINDS"},"data":[0,0,0,0,0,0,0,0,0,0,0,0,0,0,0,0,0,0,0,0,0,0,0,0,0,0,0,0,0,0,0,0,0,0,0,0,0,0,0,0,0,0,0,0,0,0,0,0,0,0,0,0,0,0,0,0,0,0,-0.7082,-0.7082,0,-0.7086,-0.7086,-0.7086,-0.707,-0.7069,-0.7069,-0.7068,-0.7073,-0.7074,-0.7074,0,0,0,0,0,0,0,0,0,0,0,0,0,-0.7061,-0.7061,-0.7082,-0.7082,-0.7082,-0.7086,-0.7086,-0.7086,-0.707,-0.7069,-0.7069,-0.7068,-0.7073,-0.7074,-0.7074,0,0,0,0,0,0,0,0,0,0,0,0,0,-0.7068,-0.7061,-0.7082,-0.7075,-0.7074,-0.7086,-0.7086,-0.7086,-0.707,-0.7069,-0.7069,-0.7068,-0.7073,-0.7073,-0.7074,-0.7094,0,0,-0.7077,-0.7077,0,0,0,0,0,0,0,0,-0.7067,-0.7069,-0.7076,-0.7075,-0.7074,-0.7077,-0.708,-0.7089,-0.707,-0.7072,-0.7068,-0.7068,-0.7075,-0.7076,-0.7078,-0.7094,-0.7095,-0.7077,-0.7078,-0.7078,-0.7078,0,0,0,0,0,0,0,-0.7067,-0.7068,-0.7084,-0.7076,-0.7075,-0.7071,-0.7071,-0.7082,-0.7077,-0.7071,-0.707,-0.7071,-0.7074,-0.7077,-0.7078,-0.7095,-0.7077,-0.7078,-0.7078,-0.7079,-0.7127,-0.7127,0,0,0,0,0,0,-0.7067,-0.7068,-0.7084,-0.7084,-0.7069,-0.7072,-0.7072,-0.7077,-0.7077,-0.7076,-0.7071,-0.707,-0.7076,-0.7077,-0.7078,-0.71,-0.7078,-0.7079,-0.7079,-0.7126,-0.7127,-0.7128,0,0,0,0,0,0,-0.7067,-0.7069,-0.7083,-0.7076,-0.7077,-0.7073,-0.7078,-0.7077,-0.708,-0.7077,-0.7076,-0.7075,-0.7075,-0.7077,-0.709,-0.71,-0.7079,-0.708,-0.7125,-0.7126,-0.7127,-0.7146,0,0,0,0,0,0,-0.7066,-0.7069,-0.7076,-0.7076,-0.7078,-0.7095,-0.7079,-0.7078,-0.7081,-0.708,-0.708,-0.708,-0.7075,-0.7089,-0.7091,-0.7101,-0.7081,-0.7124,-0.7126,-0.7127,-0.7145,-0.7148,-0.7151,0,0,0,0,0,-0.7066,-0.7082,-0.7077,-0.7079,-0.7087,-0.7096,-0.7097,-0.7091,-0.7082,-0.709,-0.7088,-0.708,-0.7099,-0.709,-0.7092,-0.7103,-0.7123,-0.7125,-0.7127,-0.7143,-0.7147,-0.715,0,0,0,0,0,0,-0.7084,-0.7082,-0.7076,-0.7092,-0.7095,-0.7093,-0.7102,-0.7096,-0.71,-0.7099,-0.7091,-0.7092,-0.7106,-0.7106,-0.7096,-0.7122,-0.711,-0.7112,-0.7121,-0.7125,-0.7128,-0.7127,-0.7081,0,0,0,0,0,-0.709,-0.7097,-0.7095,-0.711,-0.7111,-0.7107,-0.711,-0.7106,-0.7108,-0.7108,-0.7108,-0.711,-0.7116,-0.7121,-0.7127,-0.7145,-0.7144,-0.7153,-0.7156,-0.7159,-0.716,-0.7169,-0.7173,-0.7133,-0.7133,-0.7133,0,0,-0.7102,-0.7102,-0.7107,-0.7113,-0.7114,-0.7122,-0.7107,-0.7117,-0.7122,-0.711,-0.7122,-0.7122,-0.7124,-0.7139,-0.7146,-0.714,-0.7171,-0.7161,-0.7163,-0.7163,-0.7171,-0.7175,-0.7178,-0.7135,-0.7134,-0.7134,0,0,-0.7128,-0.7129,-0.7141,-0.7142,-0.7144,-0.7141,-0.7144,-0.7143,-0.7142,-0.7155,-0.7145,-0.7152,-0.7164,-0.7165,-0.7167,-0.7194,-0.7186,-0.7196,-0.7211,-0.722,-0.7223,-0.7226,-0.7234,-0.7238,-0.7198,-0.7198,-0.7198,0,-0.7143,-0.7155,-0.7148,-0.7158,-0.716,-0.7149,-0.7161,-0.7163,-0.7166,-0.7168,-0.7161,-0.7175,-0.7176,-0.7191,-0.7198,-0.72,-0.7203,-0.7196,-0.7223,-0.7226,-0.7228,-0.7236,-0.724,-0.7199,-0.7199,-0.7199,-0.7199,0,-0.7173,-0.7181,-0.719,-0.7193,-0.7197,-0.7208,-0.7203,-0.7208,-0.7203,-0.72,-0.7213,-0.7213,-0.7218,-0.7222,-0.7217,-0.7236,-0.7232,-0.7224,-0.7212,-0.7233,-0.7241,-0.7244,-0.7201,-0.72,-0.72,-0.72,0,0,-0.7211,-0.721,-0.7213,-0.7214,-0.7215,-0.7221,-0.7231,-0.7236,-0.724,-0.7243,-0.7251,-0.7261,-0.7253,-0.7256,-0.7251,-0.7259,-0.7279,-0.725,-0.725,-0.7255,-0.7299,-0.7304,-0.7308,-0.7274,-0.7275,-0.7275,-0.7298,0,-0.7236,-0.7252,-0.7246,-0.7264,-0.727,-0.726,-0.7268,-0.727,-0.7268,-0.7274,-0.7272,-0.7278,-0.7268,-0.727,-0.7277,-0.7275,-0.7287,-0.7273,-0.7281,-0.7281,-0.728,-0.7312,-0.7318,-0.734,-0.7301,-0.7302,-0.7302,0,-0.7267,-0.7271,-0.7288,-0.7287,-0.729,-0.7298,-0.7301,-0.7307,-0.7308,-0.7306,-0.7309,-0.7303,-0.7312,-0.73,-0.7313,-0.7303,-0.7306,-0.7306,-0.7306,-0.7306,-0.7293,-0.7312,-0.7347,-0.735,-0.7307,-0.7307,-0.7306,0,-0.7292,-0.7301,-0.7312,-0.7314,-0.7313,-0.7319,-0.7319,-0.7319,-0.7322,-0.7326,-0.7328,-0.7332,-0.7335,-0.7339,-0.7334,-0.7325,-0.7347,-0.7334,-0.7345,-0.7345,-0.735,-0.7349,-0.7385,-0.7353,-0.7353,-0.7353,-0.7353,0,-0.732,-0.7331,-0.7323,-0.733,-0.7342,-0.7335,-0.7347,-0.7346,-0.7347,-0.7353,-0.7345,-0.7351,-0.7344,-0.735,-0.7346,-0.7357,-0.7359,-0.7357,-0.7356,-0.7357,-0.7357,-0.7358,-0.7356,-0.7354,-0.7353,-0.7353,-0.7353,0,-0.7349,-0.7345,-0.7356,-0.7355,-0.7354,-0.7363,-0.7361,-0.7368,-0.7365,-0.7373,-0.7375,-0.7371,-0.7377,-0.7372,-0.7379,-0.7376,-0.739,-0.7387,-0.739,-0.7388,-0.7399,-0.7398,-0.7436,-0.744,-0.7406,-0.7407,-0.7407,0,-0.7367,-0.7375,-0.7374,-0.7377,-0.7378,-0.7384,-0.7387,-0.738,-0.7384,-0.7386,-0.7392,-0.7397,-0.7401,-0.7411,-0.7409,-0.7413,-0.741,-0.7423,-0.7411,-0.7412,-0.7409,-0.7408,-0.7409,-0.7425,-0.7426,-0.7426,-0.7426,0,-0.7399,-0.7396,-0.7401,-0.7404,-0.7408,-0.7411,-0.7413,-0.7416,-0.7409,-0.7414,-0.742,-0.7423,-0.7429,-0.7434,-0.7438,-0.7438,-0.7431,-0.743,-0.7433,-0.7434,-0.7434,-0.7433,-0.7395,-0.7429,-0.7429,-0.7429,-0.7428,-0.7428,-0.7423,-0.7429,-0.7429,-0.7434,-0.7435,-0.7436,-0.7442,-0.744,-0.7444,-0.7449,-0.7445,-0.7452,-0.7452,-0.7456,-0.7457,-0.7462,-0.7457,-0.7461,-0.7462,-0.7463,-0.7464,-0.7434,-0.7463,-0.7463,-0.7463,-0.7463,-0.7463,0,-0.7454,-0.7453,-0.7458,-0.746,-0.7464,-0.7457,-0.7459,-0.7462,-0.7468,-0.7469,-0.7473,-0.748,-0.7485,-0.7482,-0.7487,-0.7491,-0.7488,-0.7493,-0.7492,-0.7492,-0.7469,-0.7466,-0.7495,-0.7495,-0.7495,-0.7495,-0.7495,-0.7495,-0.747,-0.748,-0.7477,-0.7487,-0.7486,-0.7493,-0.7494,-0.7496,-0.7496,-0.7504,-0.7507,-0.7506,-0.7506,-0.751,-0.7514,-0.7513,-0.7515,-0.752,-0.7518,-0.7497,-0.7493,-0.749,-0.7487,-0.7521,-0.7521,-0.754,-0.754,-0.7541]},{"header":{"parameterUnit":"m.s-1","parameterCategory":1,"la1":30.2991,"la2":30.254,"lo1":-89.0895,"lo2":-89.0444,"dy":0.0017,"dx":0.0017,"nx":28,"ny":28,"refTime":"2025-02-05T03:00:00:Z","depth":0,"parameterNumber":3,"parameterNumberName":"V-component_of_WINDS"},"data":[0,0,0,0,0,0,0,0,0,0,0,0,0,0,0,0,0,0,0,0,0,0,0,0,0,0,0,0,0,0,0,0,0,0,0,0,0,0,0,0,0,0,0,0,0,0,0,0,0,0,0,0,0,0,0,0,0,0,2.5097,2.5098,0,2.515,2.515,2.5151,2.5164,2.5164,2.5163,2.5163,2.5216,2.5218,2.522,0,0,0,0,0,0,0,0,0,0,0,0,0,2.5008,2.5009,2.5097,2.5098,2.5098,2.515,2.515,2.5151,2.5164,2.5164,2.5163,2.5163,2.5216,2.5218,2.522,0,0,0,0,0,0,0,0,0,0,0,0,0,2.5052,2.501,2.5097,2.5111,2.5113,2.5149,2.515,2.5151,2.5164,2.5164,2.5163,2.5163,2.5215,2.5217,2.522,2.5246,0,0,2.5228,2.5229,0,0,0,0,0,0,0,0,2.5049,2.5055,2.5108,2.511,2.5112,2.515,2.5138,2.5183,2.5164,2.5145,2.5163,2.5162,2.5194,2.5199,2.521,2.5249,2.5251,2.5228,2.523,2.5231,2.5232,0,0,0,0,0,0,0,2.5046,2.5053,2.5118,2.5109,2.5111,2.5115,2.512,2.5147,2.5172,2.5146,2.5147,2.5153,2.5195,2.5207,2.5211,2.5252,2.5228,2.523,2.5232,2.5233,2.5317,2.5318,0,0,0,0,0,0,2.5041,2.505,2.5116,2.5119,2.5079,2.5117,2.5123,2.5138,2.5171,2.5176,2.5154,2.5154,2.5203,2.5208,2.5213,2.5247,2.5231,2.5233,2.5235,2.5316,2.5317,2.5318,0,0,0,0,0,0,2.5039,2.5047,2.5114,2.5085,2.5094,2.5119,2.5136,2.5139,2.5151,2.5177,2.5182,2.5161,2.5203,2.5209,2.5238,2.5249,2.5234,2.5237,2.5315,2.5316,2.5317,2.5315,0,0,0,0,0,0,2.5036,2.5046,2.5056,2.5085,2.5096,2.5139,2.5136,2.5141,2.5156,2.5156,2.5185,2.519,2.5203,2.5234,2.5241,2.5253,2.5239,2.5315,2.5316,2.5317,2.5315,2.5316,2.5318,0,0,0,0,0,2.5033,2.5053,2.5056,2.5064,2.5109,2.5139,2.5145,2.516,2.5157,2.5167,2.5184,2.5189,2.5247,2.5237,2.5245,2.5257,2.5314,2.5316,2.5317,2.5314,2.5316,2.5317,0,0,0,0,0,0,2.5023,2.5057,2.5061,2.5091,2.5112,2.5141,2.5155,2.5161,2.5184,2.5183,2.52,2.5207,2.5235,2.5249,2.5238,2.5285,2.528,2.5283,2.5275,2.5278,2.5279,2.5276,2.5241,0,0,0,0,0,2.5025,2.5047,2.5074,2.5098,2.5109,2.513,2.5144,2.5154,2.5176,2.5185,2.5204,2.5225,2.5249,2.5264,2.5286,2.5316,2.5324,2.5329,2.533,2.5331,2.5334,2.5353,2.5356,2.5323,2.5323,2.5323,0,0,2.5028,2.5049,2.5061,2.5097,2.5114,2.5137,2.5137,2.5161,2.5178,2.5188,2.5218,2.5232,2.5258,2.5288,2.5302,2.53,2.5345,2.5333,2.5334,2.5336,2.5354,2.5357,2.536,2.5324,2.5324,2.5323,0,0,2.5045,2.5062,2.5085,2.5103,2.513,2.5144,2.5149,2.5178,2.5188,2.5218,2.5227,2.5247,2.5286,2.5305,2.5319,2.5344,2.535,2.5351,2.5359,2.5377,2.538,2.5382,2.5393,2.5396,2.5354,2.5354,2.5354,0,2.5045,2.508,2.5095,2.5119,2.5135,2.5146,2.517,2.5186,2.5219,2.5229,2.5227,2.5278,2.5295,2.5331,2.5337,2.5348,2.5355,2.5348,2.5378,2.5381,2.5383,2.5393,2.5397,2.5354,2.5354,2.5354,2.5354,0,2.508,2.5104,2.5118,2.5151,2.5168,2.5191,2.5211,2.5227,2.5235,2.525,2.528,2.5302,2.533,2.5339,2.5347,2.5376,2.5374,2.5375,2.537,2.5386,2.5396,2.54,2.5354,2.5354,2.5354,2.5354,0,0,2.5092,2.5134,2.5139,2.5155,2.5186,2.5205,2.5229,2.5257,2.5271,2.5293,2.5314,2.5348,2.5349,2.5365,2.5375,2.5391,2.5411,2.5389,2.539,2.5394,2.5446,2.5447,2.5451,2.5415,2.5416,2.5416,2.5445,0,2.5114,2.5159,2.5174,2.521,2.5233,2.5245,2.5266,2.5287,2.5302,2.5324,2.5339,2.5364,2.5362,2.5372,2.5388,2.5406,2.5422,2.5404,2.5436,2.5437,2.5431,2.5456,2.5456,2.5482,2.5449,2.5449,2.545,0,2.5146,2.517,2.5209,2.5239,2.5249,2.5268,2.5296,2.5316,2.5341,2.535,2.5369,2.5379,2.5405,2.5398,2.5435,2.5422,2.5436,2.5447,2.5448,2.5453,2.5445,2.5463,2.549,2.5495,2.5456,2.5455,2.5455,0,2.5153,2.5195,2.5224,2.5237,2.5272,2.5285,2.53,2.5325,2.5341,2.5365,2.5376,2.5402,2.5417,2.5438,2.5454,2.5448,2.549,2.5484,2.55,2.5499,2.5509,2.5508,2.5541,2.5516,2.5516,2.5515,2.5515,0,2.5177,2.5201,2.5228,2.5246,2.5274,2.5291,2.5318,2.5333,2.5355,2.5377,2.5388,2.5408,2.5428,2.5451,2.5464,2.5493,2.5499,2.5508,2.5512,2.5508,2.5507,2.5518,2.5518,2.5517,2.5516,2.5516,2.5516,0,2.519,2.5209,2.5242,2.5273,2.5281,2.53,2.5327,2.5345,2.536,2.5387,2.5395,2.5418,2.5446,2.5464,2.5499,2.5508,2.5541,2.5543,2.5533,2.5535,2.5549,2.5548,2.5591,2.5598,2.5567,2.5567,2.5567,0,2.5205,2.5224,2.5257,2.5272,2.5288,2.5312,2.533,2.5348,2.5365,2.5396,2.5411,2.5439,2.5463,2.5506,2.5527,2.5554,2.5558,2.5571,2.5562,2.5558,2.556,2.5559,2.5562,2.5573,2.5573,2.5573,2.5573,0,2.5229,2.5238,2.5263,2.5291,2.5311,2.5334,2.5357,2.5369,2.5391,2.541,2.5439,2.5458,2.5494,2.5523,2.5552,2.5568,2.5575,2.5576,2.5581,2.5578,2.5572,2.5578,2.5538,2.5575,2.5575,2.5575,2.5575,2.5575,2.5244,2.5262,2.5289,2.5316,2.5336,2.5357,2.5377,2.5395,2.5419,2.5451,2.546,2.549,2.5516,2.5556,2.5572,2.5596,2.5595,2.5602,2.5604,2.5606,2.5607,2.5567,2.5601,2.5601,2.5601,2.5601,2.5601,0,2.5271,2.5289,2.5314,2.5346,2.5368,2.5373,2.5399,2.5417,2.5444,2.5467,2.5491,2.5524,2.5552,2.5575,2.5604,2.562,2.5624,2.5627,2.5626,2.563,2.5606,2.5599,2.5623,2.5623,2.5623,2.5623,2.5623,2.5623,2.5287,2.5318,2.5331,2.5372,2.5389,2.542,2.5435,2.5455,2.5474,2.5511,2.5535,2.555,2.5574,2.5605,2.5631,2.5637,2.5648,2.565,2.5657,2.5634,2.5632,2.5629,2.5623,2.5652,2.5652,2.568,2.5681,2.5681]}]]